Sidney-Richland, MT

7:58 PM MDT on May 25, 2017 (GMT -0600)
Sidney-Richland Municipal

Weather History for KSDY - March, 2013

Change the Weather History Date:

Sunday, March 24, 2013

  Actual Average Record
Temperature  
Mean Temperature 14 °F -  
Max Temperature 21 °F 50 °F 77 °F (1993)
Min Temperature 3 °F 24 °F -20 °F (1965)
Degree Days  
Heating Degree Days 52    
Moisture  
Dew Point 9 °F    
Average Humidity 81    
Maximum Humidity 92    
Minimum Humidity 68    
Precipitation  
Precipitation 0.00 in - - ()
Sea Level Pressure  
Sea Level Pressure 30.33 in    
Wind  
Wind Speed 13 mph (NW)    
Max Wind Speed 17 mph    
Max Gust Speed -    
Visibility 7 miles    
Events      
Averages and records for this station are not official NWS values.
T = Trace of Precipitation, MM = Missing Value Source: NWS Daily Summary

Daily Weather History Graph

Daily Weather History Graph

Search for Another Location

Airport or City:

Trip Planner

Search our weather history database for the weather conditions in past years. The results will help you decide how hot, cold, wet, or windy it might be!

Date:

Astronomy

Mar. 24, 2013 Rise Set
Actual Time 6:50 AM MDT 7:15 PM MDT
Civil Twilight 6:20 AM MDT 7:46 PM MDT
Nautical Twilight 5:43 AM MDT 8:23 PM MDT
Astronomical Twilight 5:05 AM MDT 9:01 PM MDT
Moon 4:38 PM MDT (3/24) 5:12 AM MDT (3/24)
Length of Visible Light 13h 26m
Length of Day
12h 24m
Waxing Gibbous, 92% of the Moon is Illuminated
Mar 24
Waxing Gibbous
Mar 27
Full
Apr 2
Last Quarter
Apr 10
New
Apr 18
First Quarter

Hourly Weather History & Observations

Time (MDT) Temp. Windchill Dew Point Humidity Pressure Visibility Wind Dir Wind Speed Gust Speed Precip Events Conditions
12:15 AM 10.4 °F -4.1 °F 6.8 °F 85% 30.28 in 5.0 mi NW 11.5 mph - N/A   Overcast
12:35 AM 10.4 °F -3.3 °F 6.8 °F 85% 30.27 in 8.0 mi WNW 10.4 mph - N/A   Mostly Cloudy
12:55 AM 10.4 °F -4.8 °F 6.8 °F 85% 30.27 in 5.0 mi WNW 12.7 mph - N/A   Mostly Cloudy
1:15 AM 10.4 °F -4.1 °F 5.0 °F 79% 30.27 in 5.0 mi WNW 11.5 mph - N/A   Overcast
1:35 AM 10.4 °F -3.3 °F 6.8 °F 85% 30.27 in 4.0 mi WNW 10.4 mph - N/A   Overcast
1:55 AM 10.4 °F -4.1 °F 6.8 °F 85% 30.27 in 6.0 mi WNW 11.5 mph - N/A   Overcast
2:15 AM 10.4 °F -3.3 °F 5.0 °F 79% 30.27 in 8.0 mi WNW 10.4 mph - N/A   Overcast
2:35 AM 10.4 °F -6.0 °F 6.8 °F 85% 30.27 in 9.0 mi WNW 15.0 mph - N/A   Overcast
2:55 AM 10.4 °F -6.0 °F 8.6 °F 92% 30.27 in 5.0 mi WNW 15.0 mph - N/A   Overcast
3:15 AM 10.4 °F -5.4 °F 6.8 °F 85% 30.27 in 3.0 mi WNW 13.8 mph - N/A   Overcast
3:35 AM 12.2 °F -2.5 °F 6.8 °F 79% 30.26 in 5.0 mi WNW 12.7 mph - N/A   Overcast
3:55 AM 10.4 °F -5.4 °F 6.8 °F 85% 30.26 in 5.0 mi WNW 13.8 mph - N/A   Overcast
4:15 AM 10.4 °F -5.4 °F 6.8 °F 85% 30.27 in 5.0 mi NW 13.8 mph - N/A   Overcast
4:35 AM 10.4 °F -6.0 °F 6.8 °F 85% 30.27 in 7.0 mi NW 15.0 mph - N/A   Overcast
4:55 AM 12.2 °F -4.3 °F 6.8 °F 79% 30.27 in 8.0 mi NW 16.1 mph - N/A   Overcast
5:15 AM 10.4 °F -6.6 °F 6.8 °F 85% 30.27 in 3.0 mi NW 16.1 mph - N/A   Overcast
5:35 AM 10.4 °F -6.0 °F 6.8 °F 85% 30.27 in 3.0 mi NW 15.0 mph - N/A   Overcast
6:15 AM 10.4 °F -5.4 °F 6.8 °F 85% 30.28 in 3.0 mi NW 13.8 mph - N/A   Overcast
6:35 AM 10.4 °F -6.6 °F 6.8 °F 85% 30.28 in 4.0 mi NW 16.1 mph - N/A   Overcast
6:55 AM 10.4 °F -6.6 °F 6.8 °F 85% 30.29 in 4.0 mi NW 16.1 mph - N/A   Overcast
7:15 AM 10.4 °F -6.6 °F 6.8 °F 85% 30.29 in 3.0 mi WNW 16.1 mph - N/A   Overcast
7:35 AM 12.2 °F -4.8 °F 6.8 °F 79% 30.29 in 3.0 mi NW 17.3 mph - N/A   Overcast
7:55 AM 12.2 °F -3.7 °F 8.6 °F 85% 30.29 in 2.0 mi WNW 15.0 mph - N/A   Overcast
8:15 AM 12.2 °F -4.3 °F 8.6 °F 85% 30.30 in 2.5 mi WNW 16.1 mph - N/A   Overcast
8:35 AM 12.2 °F -3.7 °F 8.6 °F 85% 30.30 in 2.0 mi WNW 15.0 mph - N/A   Overcast
8:55 AM 12.2 °F -4.3 °F 8.6 °F 85% 30.30 in 3.0 mi WNW 16.1 mph - N/A   Overcast
9:15 AM 14.0 °F -0.2 °F 8.6 °F 79% 30.30 in 4.0 mi NW 12.7 mph - N/A   Overcast
9:35 AM 14.0 °F -0.8 °F 8.6 °F 79% 30.31 in 3.0 mi NW 13.8 mph - N/A   Overcast
9:55 AM 14.0 °F -0.2 °F 10.4 °F 86% 30.32 in 3.0 mi NW 12.7 mph - N/A   Overcast
10:15 AM 15.8 °F 3.4 °F 10.4 °F 79% 30.33 in 3.0 mi NW 10.4 mph - N/A   Overcast
10:55 AM 15.8 °F 0.9 °F 12.2 °F 86% 30.33 in 2.0 mi NW 15.0 mph - N/A   Overcast
11:15 AM 17.6 °F 4.3 °F 10.4 °F 73% 30.33 in 3.0 mi NNW 12.7 mph - N/A   Overcast
11:35 AM 17.6 °F 5.0 °F 12.2 °F 79% 30.34 in 3.0 mi NW 11.5 mph - N/A   Overcast
11:55 AM 17.6 °F 3.7 °F 12.2 °F 79% 30.34 in 4.0 mi NNW 13.8 mph - N/A   Overcast
12:15 PM 19.4 °F 5.5 °F 14.0 °F 80% 30.34 in 4.0 mi NNW 15.0 mph - N/A   Overcast
12:35 PM 19.4 °F 5.0 °F 12.2 °F 74% 30.34 in 2.0 mi NNW 16.1 mph - N/A   Overcast
1:15 PM 19.4 °F 5.5 °F 14.0 °F 80% 30.35 in 9.0 mi NNW 15.0 mph - N/A   Overcast
1:35 PM 19.4 °F 6.6 °F 15.8 °F 86% 30.35 in 10.0 mi NNW 12.7 mph - N/A   Mostly Cloudy
1:55 PM 19.4 °F 5.5 °F 12.2 °F 74% 30.35 in 10.0 mi NNW 15.0 mph - N/A   Mostly Cloudy
2:35 PM 21.2 °F 7.8 °F 15.8 °F 80% 30.35 in 10.0 mi NW 15.0 mph - N/A   Mostly Cloudy
2:55 PM 21.2 °F 8.3 °F 12.2 °F 68% 30.36 in 10.0 mi NW 13.8 mph - N/A   Overcast
3:35 PM 21.2 °F 8.9 °F 14.0 °F 74% 30.36 in 9.0 mi NW 12.7 mph - N/A   Mostly Cloudy
4:15 PM 19.4 °F 7.9 °F 14.0 °F 80% 30.37 in 8.0 mi NW 10.4 mph - N/A   Overcast
4:35 PM 19.4 °F 6.0 °F 12.2 °F 74% 30.37 in 10.0 mi NW 13.8 mph - N/A   Mostly Cloudy
4:55 PM 19.4 °F 6.6 °F 14.0 °F 80% 30.37 in 10.0 mi NNW 12.7 mph - N/A   Mostly Cloudy
5:15 PM 19.4 °F 6.6 °F 12.2 °F 74% 30.37 in 10.0 mi NW 12.7 mph - N/A   Mostly Cloudy
5:35 PM 19.4 °F 6.0 °F 12.2 °F 74% 30.37 in 10.0 mi NW 13.8 mph - N/A   Mostly Cloudy
5:55 PM 19.4 °F 7.9 °F 12.2 °F 74% 30.37 in 10.0 mi NW 10.4 mph - N/A   Overcast
6:15 PM 17.6 °F 6.4 °F 10.4 °F 73% 30.38 in 10.0 mi WNW 9.2 mph - N/A   Overcast
6:35 PM 17.6 °F 5.0 °F 12.2 °F 79% 30.38 in 10.0 mi NW 11.5 mph - N/A   Overcast
6:55 PM 17.6 °F 5.7 °F 10.4 °F 73% 30.37 in 10.0 mi WNW 10.4 mph - N/A   Overcast
7:15 PM 15.8 °F 4.2 °F 12.2 °F 86% 30.38 in 10.0 mi NW 9.2 mph - N/A   Overcast
7:35 PM 15.8 °F 3.4 °F 10.4 °F 79% 30.38 in 10.0 mi NW 10.4 mph - N/A   Overcast
7:55 PM 12.2 °F 0.7 °F 6.8 °F 79% 30.38 in 10.0 mi NW 8.1 mph - N/A   Overcast
8:15 PM 10.4 °F -4.8 °F 5.0 °F 79% 30.38 in 10.0 mi WNW 12.7 mph - N/A   Partly Cloudy
8:35 PM 10.4 °F -4.1 °F 6.8 °F 85% 30.38 in 10.0 mi WNW 11.5 mph - N/A   Clear
8:55 PM 8.6 °F -7.0 °F 3.2 °F 79% 30.38 in 10.0 mi WNW 12.7 mph - N/A   Clear
9:35 PM 8.6 °F -5.5 °F 5.0 °F 85% 30.38 in 10.0 mi WNW 10.4 mph - N/A   Clear
9:55 PM 8.6 °F -5.5 °F 3.2 °F 79% 30.38 in 10.0 mi NW 10.4 mph - N/A   Clear
10:15 PM 6.8 °F -6.9 °F 3.2 °F 85% 30.39 in 10.0 mi WNW 9.2 mph - N/A   Clear
10:55 PM 6.8 °F -2.0 °F 3.2 °F 85% 30.40 in 10.0 mi West 4.6 mph - N/A   Overcast
11:35 PM 6.8 °F - 1.4 °F 79% 30.39 in 10.0 mi Calm Calm - N/A   Scattered Clouds
11:55 PM 3.2 °F -6.2 °F -2.2 °F 78% 30.39 in 10.0 mi West 4.6 mph - N/A   Partly Cloudy